Left ArrowRight Arrow

30.21309, -93.2044

Hourly Observations for June 19, 2024

Temp ( °F °C ) Dew Point ( °F °C ) Humidity (%) Winds ( mph kmh ) Pressure ( in mb ) Visibility ( mi km ) Precip ( " mm )
12:15 am 00:15 Clear 77 24.8 73 22.8 89 89 E 10 17 29.90 1013 10 16 0.00 0.00
12:35 am 00:35 Clear 76 24.7 73 22.7 89 89 E 8 13 29.90 1013 10 16 0.00 0.00
12:55 am 00:55 Clear 77 25 73 23 89 89 E 8 13 29.90 1013 10 16 0.00 0.00
1:15 am 01:15 Clear 76 24.5 73 22.6 89 89 E 8 13 29.89 1012 10 16 0.00 0.00
1:35 am 01:35 Partly Cloudy 76 24.7 73 22.6 88 88 ENE 8 13 29.89 1012 10 16 0.00 0.00
1:55 am 01:55 Partly Cloudy 77 25 73 23 89 89 ENE 9 15 29.89 1012 10 16 0.00 0.00
2:15 am 02:15 Clear 77 24.8 73 22.5 87 87 ENE 9 15 29.89 1012 10 16 0.00 0.00
2:35 am 02:35 Clear 76 24.7 73 22.5 88 88 E 9 15 29.89 1012 10 16 0.00 0.00
2:55 am 02:55 Clear 76 24.6 72 22.4 88 88 ENE 8 13 29.89 1012 10 16 0.00 0.00
3:15 am 03:15 Clear 76 24.6 72 22.4 88 88 ENE 7 11 29.88 1012 10 16 0.00 0.00
3:35 am 03:35 Clear 76 24.5 72 22.3 88 88 NE 10 17 29.87 1011 10 16 0.00 0.00
3:55 am 03:55 Clear 76 24.4 72 22.2 88 88 ENE 8 13 29.88 1012 10 16 0.00 0.00
4:15 am 04:15 Clear 76 24.5 72 22.1 87 87 ENE 10 17 29.88 1012 10 16 0.00 0.00
4:35 am 04:35 Clear 76 24.4 72 22 87 87 ENE 8 13 29.88 1012 10 16 0.00 0.00
4:55 am 04:55 Clear 76 24.4 72 22 87 87 NE 9 15 29.88 1012 10 16 0.00 0.00
5:15 am 05:15 Clear 76 24.4 72 22 87 87 NE 9 15 29.88 1012 10 16 0.00 0.00
5:35 am 05:35 Clear 76 24.3 71 21.9 86 86 ENE 8 13 29.89 1012 10 16 0.00 0.00
6:00 am 06:00 Cloudy 75 24 72 22 89 89 ENE 12 19 29.89 1012 10 16 0.00 0.00
6:50 am 06:50 Cloudy 75 24 72 22 89 89 ENE 12 19 29.91 1013 10 16 0.00 0.00
7:47 am 07:47 Cloudy 77 25 72 22 83 83 ENE 14 22 29.93 1014 10 16 0.00 0.00
8:50 am 08:50 Cloudy 79 26 72 22 79 79 ENE 14 22 29.95 1014 10 16 0.00 0.00
9:47 am 09:47 Partly Cloudy 81 27 73 23 79 79 ENE 14 22 29.96 1015 10 16 0.00 0.00
11:47 am 11:47 Mostly Cloudy 84 29 75 24 74 74 ENE 16 26 29.97 1015 10 16 0.00 0.00
12:45 pm 12:45 Mostly Cloudy 88 31 75 24 66 66 ENE 16 26 29.98 1015 10 16 0.00 0.00
1:45 pm 13:45 Mostly Cloudy 88 31 75 24 66 66 ENE 16 26 29.97 1015 10 16 0.00 0.00
2:45 pm 14:45 Mostly Cloudy 90 32 75 24 63 63 ENE 16 26 29.95 1014 10 16 0.00 0.00
3:45 pm 15:45 Mostly Cloudy 90 32 75 24 63 63 ENE 18 30 29.94 1014 10 16 0.00 0.00
4:45 pm 16:45 Mostly Cloudy with Light Rain 86 30 75 24 70 70 E 14 22 29.94 1014 10 16 0.00 0.00
5:45 pm 17:45 Partly Cloudy 88 31 73 23 63 63 E 13 20 29.95 1014 10 16 0.00 0.00
6:45 pm 18:45 Partly Cloudy 88 31 75 24 66 66 E 14 22 29.95 1014 10 16 0.00 0.00
7:45 pm 19:45 Mostly Cloudy 84 29 73 23 70 70 ENE 14 22 29.96 1015 10 16 0.00 0.00
8:45 pm 20:45 Mostly Cloudy 82 28 75 24 79 79 ENE 12 19 29.99 1016 10 16 0.00 0.00
9:45 pm 21:45 Mostly Cloudy 81 27 73 23 79 79 ENE 12 19 30.01 1016 10 16 0.00 0.00
10:15 pm 22:15 Clear 80 26.8 74 23.3 81 81 E 9 15 30.02 1017 10 16 0.00 0.00
10:35 pm 22:35 Mostly Cloudy 80 26.8 74 23.4 82 82 E 7 11 30.03 1017 10 16 0.00 0.00
10:55 pm 22:55 Partly Cloudy 80 26.7 74 23.2 81 81 E 8 13 30.03 1017 10 16 0.00 0.00
11:15 pm 23:15 Clear 80 26.5 74 23.1 82 82 E 12 19 30.04 1017 10 16 0.00 0.00
11:35 pm 23:35 Clear 79 26.3 73 23 82 82 E 9 15 30.04 1017 10 16 0.00 0.00
11:55 pm 23:55 Clear 79 26.2 73 22.9 82 82 E 12 19 30.03 1017 10 16 0.00 0.00

Powered by Vaisala Xweather